TimeEDT,TemperatureF,Dew PointF,Humidity,Sea Level PressureIn,VisibilityMPH,Wind Direction,Wind SpeedMPH,Gust SpeedMPH,PrecipitationIn,Events,Conditions,WindDirDegrees,DateUTC
12:41 AM,39.2,39.2,100,29.97,1.5,Calm,Calm,-,N/A,,Mostly Cloudy,0,2013-04-10 04:41:00
12:53 AM,39.0,39.0,100,29.97,1.2,Calm,Calm,-,N/A,,Mostly Cloudy,0,2013-04-10 04:53:00
1:05 AM,37.4,37.4,100,29.97,0.5,NNW,3.5,-,N/A,Fog,Fog,340,2013-04-10 05:05:00
1:17 AM,37.4,37.4,100,29.96,0.5,Calm,Calm,-,N/A,Fog,Fog,0,2013-04-10 05:17:00
1:35 AM,37.4,37.4,100,29.96,0.5,Calm,Calm,-,N/A,Fog,Fog,0,2013-04-10 05:35:00
1:43 AM,37.4,37.4,100,29.95,0.2,Calm,Calm,-,N/A,Fog,Fog,0,2013-04-10 05:43:00
1:53 AM,37.0,37.0,100,29.95,0.2,Calm,Calm,-,N/A,Fog,Fog,0,2013-04-10 05:53:00
2:38 AM,37.4,37.4,100,29.94,0.2,Calm,Calm,-,N/A,,Overcast,0,2013-04-10 06:38:00
2:53 AM,37.9,37.9,100,29.95,0.2,Calm,Calm,-,0.00,,Light Drizzle,0,2013-04-10 06:53:00
3:53 AM,37.9,37.9,100,29.94,0.2,SSW,3.5,-,0.02,Rain,Light Rain,210,2013-04-10 07:53:00
4:04 AM,37.4,37.4,100,29.93,1.5,SW,3.5,-,0.01,Rain,Light Rain,220,2013-04-10 08:04:00
4:53 AM,37.9,37.9,100,29.93,1.5,SSW,4.6,-,0.03,Rain,Light Rain,200,2013-04-10 08:53:00
5:06 AM,37.4,37.4,100,29.94,4.0,SW,3.5,-,0.01,Rain,Light Rain,220,2013-04-10 09:06:00
5:53 AM,37.9,37.9,100,29.94,7.0,SSW,5.8,-,0.01,Rain,Light Rain,200,2013-04-10 09:53:00
6:45 AM,37.4,37.4,100,29.93,7.0,SSW,4.6,-,0.01,,Overcast,210,2013-04-10 10:45:00
6:53 AM,37.9,37.0,97,29.94,6.0,SW,5.8,-,0.01,,Overcast,220,2013-04-10 10:53:00
7:53 AM,37.9,37.9,100,29.95,7.0,SSW,3.5,-,N/A,,Overcast,210,2013-04-10 11:53:00
8:53 AM,39.0,39.0,100,29.96,10.0,Calm,Calm,-,N/A,,Overcast,0,2013-04-10 12:53:00
9:07 AM,39.2,37.4,93,29.94,10.0,Calm,Calm,-,N/A,,Overcast,0,2013-04-10 13:07:00
9:53 AM,42.1,39.9,92,29.95,10.0,WSW,5.8,-,N/A,,Overcast,250,2013-04-10 13:53:00
10:53 AM,46.9,43.0,86,29.94,10.0,SW,5.8,-,N/A,,Mostly Cloudy,230,2013-04-10 14:53:00
11:53 AM,51.1,43.0,74,29.94,10.0,SW,9.2,-,N/A,,Mostly Cloudy,230,2013-04-10 15:53:00
12:33 PM,51.8,41.0,67,29.93,10.0,WNW,8.1,-,N/A,,Mostly Cloudy,300,2013-04-10 16:33:00
12:53 PM,51.8,41.0,67,29.92,10.0,West,9.2,-,N/A,,Mostly Cloudy,280,2013-04-10 16:53:00
12:56 PM,51.8,41.0,67,29.92,10.0,West,5.8,-,N/A,,Mostly Cloudy,280,2013-04-10 16:56:00
1:49 PM,51.8,39.2,62,29.92,10.0,NW,15.0,18.4,0.00,Rain,Light Rain,320,2013-04-10 17:49:00
1:53 PM,51.1,37.9,61,29.92,10.0,NW,10.4,18.4,0.00,Rain,Light Rain,310,2013-04-10 17:53:00
2:53 PM,55.0,36.0,49,29.90,10.0,NW,13.8,21.9,0.00,,Mostly Cloudy,320,2013-04-10 18:53:00
3:53 PM,54.0,34.0,47,29.90,10.0,NW,10.4,-,N/A,,Overcast,310,2013-04-10 19:53:00
4:53 PM,52.0,35.1,53,29.90,10.0,North,6.9,-,N/A,,Overcast,350,2013-04-10 20:53:00
5:53 PM,50.0,34.0,54,29.89,10.0,North,6.9,-,N/A,,Overcast,360,2013-04-10 21:53:00
6:53 PM,48.0,34.0,58,29.91,10.0,North,3.5,-,N/A,,Overcast,350,2013-04-10 22:53:00
7:53 PM,46.0,34.0,63,29.89,10.0,Calm,Calm,-,N/A,,Mostly Cloudy,0,2013-04-10 23:53:00
8:53 PM,45.0,36.0,71,29.92,10.0,Calm,Calm,-,N/A,,Overcast,0,2013-04-11 00:53:00
9:53 PM,44.1,36.0,73,29.91,10.0,Calm,Calm,-,N/A,,Overcast,0,2013-04-11 01:53:00
10:53 PM,43.0,37.0,80,29.90,10.0,Calm,Calm,-,N/A,,Overcast,0,2013-04-11 02:53:00
11:53 PM,43.0,35.1,74,29.91,10.0,West,5.8,-,N/A,,Mostly Cloudy,280,2013-04-11 03:53:00